#timestamp,LO_Frequency,Hit,StdDev 
1508562015.5,286047000.2,N
1508562035.3,286046998.9,N
1508562055.1,286046999.4,N
1508562075.8,286046999.1,N
1508562095.7,286046999.0,N
1508562115.5,286047000.5,N
1508562135.3,286047002.6,N
1508562155.2,286047000.4,N
1508562175.0,286047001.7,N
1508562175.9,286047001.7,N
1508562195.7,286047000.9,N
1508562215.6,286046995.6,N
1508562235.4,286046994.5,N
1508562255.2,286046999.1,N
1508562275.1,286046995.7,N
1508562276.0,286046995.7,N
1508562295.8,286046993.0,N
1508562315.6,286046987.6,Y
1508562335.5,286046987.3,P
1508562355.3,286046987.6,N
1508562375.1,286046983.9,N
1508562395.9,286046982.2,N
1508562415.7,286046981.2,N
1508562435.5,286046976.1,Y
1508562455.4,286046988.7,P
1508562475.2,286046987.2,P
1508562495.0,286046985.5,P
1508562495.9,286046985.5,Y
1508562515.8,286046999.5,P
1508562535.6,286046998.7,N
1508562555.4,286046997.2,N
1508562575.3,286046998.3,N
1508562595.1,286046998.4,N
1508562615.8,286046997.7,N
1508562635.7,286046995.3,N
1508562655.5,286046993.5,N
1508562675.3,286046993.5,N
1508562695.2,286046994.2,N
1508562715.9,286046994.1,N
1508562735.7,286046997.5,N
1508562755.6,286046995.0,N
1508562775.4,286046995.4,N
1508562795.2,286046999.5,N
1508562815.1,286046998.5,N
1508562816.0,286046998.5,N
1508562835.8,286047001.0,N
1508562855.6,286046998.5,N
1508562875.5,286046999.6,N
1508562895.3,286046998.6,N
1508562915.1,286047000.9,N
1508562935.9,286046999.5,N
1508562955.7,286047000.9,N
1508562975.5,286047003.2,N
1508562995.3,286047005.9,N
1508563015.2,286047005.6,N
1508563035.0,286047004.4,N
1508563035.9,286047004.4,N
1508563055.7,286047005.6,N
1508563075.6,286047004.7,N
1508563095.4,286047005.1,N
1508563115.2,286047005.7,N
1508563135.1,286047004.0,N
1508563136.0,286047004.0,N
1508563155.8,286046998.5,N
1508563175.6,286047003.0,N
1508563195.5,286047005.8,N
1508563215.3,286047010.5,N
1508563235.1,286047014.4,Y
1508563255.9,286047013.8,P
1508563275.7,286047012.6,N
1508563295.5,286047017.1,P
1508563315.4,286047017.5,N
1508563335.2,286047020.3,Y
1508563355.0,286047008.6,P
1508563355.9,286047008.6,P
1508563375.8,286047008.5,P
1508563395.6,286047006.9,Y
1508563415.4,286046997.8,P
1508563435.3,286046996.0,N
1508563455.1,286046997.2,N
1508563475.8,286046996.7,N
1508563495.7,286046998.7,N
1508563515.5,286046998.5,N
1508563535.3,286046998.9,N
1508563555.2,286046997.1,N
1508563575.0,286046997.6,N
1508563575.9,286046997.6,N
1508563595.7,286046998.0,N
1508563615.6,286046996.0,N
1508563635.4,286046996.3,N
1508563655.2,286046993.6,N
1508563675.1,286046996.0,N
1508563676.0,286046996.0,N
1508563695.8,286046994.8,N
1508563715.6,286046995.4,N
1508563735.5,286046993.5,N
1508563755.3,286046996.4,N
1508563775.1,286046995.0,N
1508563795.9,286046994.1,N
1508563815.7,286046993.2,N
1508563835.5,286046990.6,Y
1508563855.4,286046993.4,P
1508563875.2,286046994.8,P
1508563895.0,286046993.6,P
1508563895.9,286046993.6,Y
1508563915.8,286046998.4,P
1508563935.6,286046997.2,N
1508563955.4,286046997.4,N
1508563975.3,286046998.4,N
1508563995.1,286046999.0,N
1508563996.0,286046999.0,N
1508564015.8,286046998.1,N
1508564035.7,286047000.5,N
1508564055.5,286047001.0,N
1508564075.3,286046998.7,N
1508564095.1,286046998.7,N
1508564115.9,286046997.0,N
1508564135.7,286047000.9,N
1508564155.5,286046999.1,N
1508564175.4,286046996.2,N
1508564195.2,286046996.0,N
1508564215.0,286046994.8,Y
1508564215.9,286046994.8,P
1508564235.8,286046994.6,P
1508564255.6,286046992.0,P
1508564275.5,286046992.7,Y
1508564295.3,286046997.8,P
1508564315.1,286046990.5,P
1508564335.9,286046990.3,P
1508564355.7,286046989.7,Y
1508564375.5,286046994.6,P
1508564395.4,286046997.3,P
1508564415.2,286046996.5,N
1508564435.0,286046997.3,N
1508564435.9,286046997.3,N
1508564455.7,286046998.8,N
1508564475.6,286047002.0,N
1508564495.4,286047001.8,N
1508564515.2,286047001.9,N
1508564535.1,286047000.2,N
1508564536.0,286047000.2,N
1508564555.8,286046998.5,N
1508564575.6,286046999.5,N
1508564595.5,286046997.7,N
1508564615.3,286046993.3,N
1508564635.1,286046993.9,N
1508564655.9,286046995.3,N
1508564675.7,286046996.3,N
1508564695.5,286046996.2,N
1508564715.4,286046994.6,N
1508564735.2,286046991.7,Y
1508564755.0,286046994.9,P
1508564755.9,286046994.9,P
1508564775.8,286046995.4,P
1508564795.6,286046997.8,N
1508564815.4,286046997.3,N
1508564835.3,286046997.9,N
1508564855.1,286046998.5,N
1508564856.0,286046998.5,N
1508564875.8,286046998.2,N
1508564895.7,286047002.7,N
1508564915.5,286047001.5,N
1508564935.3,286047002.8,N
1508564955.2,286047000.9,N
1508564975.9,286046998.4,N
1508564995.7,286046997.5,N
1508565015.6,286047003.7,N
1508565035.4,286047005.7,N
1508565055.2,286047004.9,N
1508565075.0,286047008.6,N
1508565076.0,286047008.6,N
1508565095.8,286047008.5,N
1508565115.6,286047010.9,N
1508565135.4,286047011.0,N
1508565155.3,286047013.8,N
1508565175.1,286047011.1,N
1508565195.8,286047008.2,N
1508565215.7,286047009.7,N
1508565235.5,286047011.2,N
1508565255.3,286047011.7,N
1508565275.2,286047013.5,N
1508565295.9,286047009.9,N
1508565315.7,286047011.5,N
1508565335.6,286047009.6,N
1508565355.4,286047011.2,N
1508565375.2,286047009.7,N
1508565395.1,286047009.5,N
1508565396.0,286047009.5,N
1508565415.8,286047010.1,N
1508565435.6,286047010.6,N
1508565455.5,286047010.5,N
1508565475.3,286047008.2,N
1508565495.1,286047010.8,N
1508565515.8,286047010.3,N
1508565535.7,286047007.0,N
1508565555.5,286047007.8,N
1508565575.4,286047012.3,Y
1508565595.2,286047001.0,P
